Starlink 1294

operational
NORAD ID: 45551 Int'l Des: 2020-025 Owner: SPXS Country: US Constellation: starlink
LEOCIRCULAR

Starlink 1294について

説明を読み込み中...

リアルタイム位置

3D地球を読み込み中...

次回通過

高度履歴

Altitude vs Time

uPlot chart will show altitude changes over time

軌道要素

1 45551U 20025W 25349.35414643 .00069832 00000-0 59985-3 0 9999
2 45551 53.0457 39.8942 0001179 119.1335 240.9799 15.68739124313588
Epoch: Dec 15, 2025 • Age: 19 hours

現在のステータス

高度 369.5 km
速度 7.69 km/s
衛星直下点 -25.05°S, 95.17°E
打ち上げ日 Apr 22, 2020
運用期間 5.6 years
タイプ internet

技術仕様

分類 Payload
質量 260.00 kg
乾燥質量 248.00 kg
総質量 260.00 kg
長さ 0.20 m
直径 2.80 m
スパン 9.00 m
形状 Box + pan
製造者 SPXS
バスタイプ Starlink
フェーズステータス In Orbit
所有者/国 SPXS/US

大規模コンステレーション

Loading constellations...